Location: Durham
(54.7770°N, 1.5720°W)
Time: 14:09:43
(UTC+01:00)

ISS - Visible Passes

Search period start: 17 July 2025 00:00
Search period end: 27 July 2025 00:00
Orbit: 415 x 418 km, 51.6° (Epoch: 17 July)

Date Brightness Start Highest point End Pass type
(mag) Time Alt. Az. Time Alt. Az. Time Alt. Az.
17 Jul -1.6 00:57:16 10° WSW 00:58:17 13° SW 00:58:17 13° SW visible
17 Jul -3.3 22:31:36 10° W 22:34:49 43° SSW 22:38:01 10° ESE visible
18 Jul -2.2 00:08:36 10° WSW 00:11:04 19° SSW 00:11:22 19° SSW visible
18 Jul -2.5 23:20:07 10° W 23:22:55 25° SSW 23:24:31 17° SSE visible
19 Jul -2.7 22:31:43 10° W 22:34:43 31° SSW 22:37:41 10° SE visible
20 Jul -1.3 00:10:00 10° SW 00:10:34 11° SW 00:10:34 11° SW visible
20 Jul -1.7 23:20:39 10° WSW 23:22:38 15° SW 23:23:46 13° SSW visible
21 Jul -2.0 22:31:57 10° WSW 22:34:29 20° SSW 22:37:00 10° SSE visible
23 Jul -1.3 22:33:03 10° SW 22:34:03 11° SW 22:35:03 10° SSW visible
